Location: Ettisweiler
(47.9903°N, 9.2407°E)
Time: 07:30:52
(UTC+00:00)

Daily predictions for brighter satellites

Satellite Brightness Start Highest point End
(mag) Time Altitude Azimuth Time Altitude Azimuth Time Altitude Azimuth
Spot 2 Rocket 4.1 19:24:09 10° SE 19:28:50 41° ENE 19:33:32 10° N
SL-16 R/B 3.0 19:23:40 10° NNW 19:29:00 39° NE 19:34:17 10° ESE
Cosmos 1607 4.0 19:22:57 10° SSW 19:29:07 86° SE 19:35:26 10° NE
ERS-1 Rocket 3.0 19:26:51 10° SSE 19:31:52 86° ENE 19:36:55 10° NNW
Meteor 1-27 4.2 19:27:57 10° S 19:33:34 76° E 19:39:09 10° NNE
IRAS Rocket 4.5 19:29:07 10° S 19:34:34 73° WSW 19:40:06 10° NNW
MetOp-B 4.2 19:34:01 10° SSE 19:39:22 86° ENE 19:44:46 10° NNW
Cosmos 1459 Rocket 4.5 19:35:12 10° SSW 19:41:22 67° W 19:47:28 10° N
Cosmos 2061 Rocket 4.2 19:36:48 10° SSE 19:42:50 55° E 19:48:57 10° NNE
Cosmos 1980 Rocket 3.2 19:37:51 10° NW 19:43:15 45° WSW 19:48:35 10° S
CZ-4 R/B 2.3 19:40:50 10° S 19:44:16 42° W 19:47:45 10° NNW
USA 186 2.5 19:42:50 10° SE 19:45:12 28° ENE 19:47:39 10° N
Cosmos 2228 2.8 19:41:22 10° S 19:45:27 73° E 19:49:33 10° NNE
COSMOS 2406 3.5 19:40:35 10° S 19:46:02 47° ESE 19:51:30 10° NE
Cosmos 2084 Rocket 4.2 19:44:07 10° NW 19:48:08 45° SW 19:52:10 10° SSE
Cosmos 1933 4.5 19:45:08 10° SE 19:48:10 23° E 19:51:13 10° NE
SL-08 R/B 3.4 19:43:34 10° NNE 19:48:20 57° E 19:52:57 10° S
ISS -2.7 19:46:21 10° W 19:49:36 46° N 19:52:51 10° ENE
Cosmos 1743 3.3 19:46:47 10° NNW 19:49:40 41° W 19:52:31 10° SSW
Cosmos 1461 3.0 19:46:33 10° S 19:50:01 38° ESE 19:53:28 10° NE
Cosmos 1455 Rocket 3.5 19:45:52 10° SSW 19:50:14 66° WNW 19:54:36 10° N
Cosmos 1992 Rocket 4.0 19:45:12 10° S 19:50:20 63° ESE 19:55:29 10° NNE
Cosmos 1802 Rocket 4.3 19:45:01 10° SSW 19:51:10 74° W 19:57:20 10° N
Cosmos 1892 Rocket 4.2 19:47:40 10° NNW 19:51:53 55° W 19:56:05 10° S
SKYMED 3 4.3 19:48:13 10° NNE 19:52:11 76° ESE 19:56:09 10° S
Terra 2.1 19:47:38 10° S 19:52:18 70° WSW 19:57:01 10° NNW
Okean O Rocket 1.6 19:52:41 10° SSE 19:56:55 63° ENE 20:01:11 10° N
Cosmos 2333 Rocket 2.5 19:53:48 10° NNW 19:59:26 56° ENE 20:04:29 13° SE
NOSS 3-3 (A) 3.8 19:58:49 10° SW 20:04:00 85° NW 20:10:16 10° NE
Cosmos 1544 Rocket 3.8 19:59:51 10° SSE 20:04:00 48° E 20:08:10 10° NNE
Cosmos 1437 Rocket 3.1 20:03:17 11° SSE 20:06:29 39° E 20:09:51 10° NNE
Cosmos 2360 Rocket 2.9 20:04:01 10° NNW 20:09:25 41° NE 20:13:59 14° ESE
Helios 1A Rocket 3.6 20:06:37 10° N 20:09:37 41° WNW 20:12:35 10° SW
CZ-4B R/B 3.9 20:07:08 10° S 20:12:40 56° W 20:18:11 10° NNW
Cosmos 2233 Rocket 4.2 20:08:33 10° SSW 20:14:45 77° W 20:20:56 10° N
Okean-O 2.7 20:14:53 11° S 20:19:04 80° WSW 20:23:29 10° NNW
Cosmos 1486 Rocket 4.4 20:14:53 10° NNW 20:20:02 52° ENE 20:23:55 17° SE
Cosmos 909 Rocket 4.2 20:14:55 10° SW 20:21:14 79° NW 20:27:47 10° NE
Cosmos 1758 Rocket 3.5 20:17:34 10° N 20:22:00 90° E 20:25:51 14° S
Cosmos 2219 Rocket 3.2 20:16:54 10° NNW 20:22:04 34° NE 20:26:24 14° ESE
CZ-2C R/B 3.7 20:21:09 17° E 20:22:08 20° ENE 20:24:16 10° NNE
DNEPR-1 R/B 4.4 20:24:25 10° NW 20:29:56 80° NE 20:34:56 18° SE
USA 245 4.3 20:25:40 15° SSE 20:30:35 77° ENE 20:36:06 10° N
IRS-1C Rocket 4.3 20:27:08 18° SE 20:30:59 57° ENE 20:36:10 10° N
Nadezhda 4 Rocket 4.4 20:25:21 10° N 20:31:15 47° ENE 20:35:27 19° SE
Meteor 1-25 Rocket 4.2 20:25:47 10° N 20:31:28 71° ENE 20:35:42 18° SSE
Cosmos 1825 Rocket 4.3 20:30:33 10° N 20:34:36 36° ENE 20:36:52 21° SE
Cosmos 1805 3.2 20:32:03 10° N 20:35:12 46° ENE 20:36:34 27° SE
Cosmos 220 Rocket 3.7 20:32:24 10° SSW 20:36:24 69° ESE 20:40:30 10° NNE
NOSS 3-3 (C) 4.2 20:31:23 10° SW 20:36:38 65° NW 20:43:00 10° NE
Cosmos 2322 Rocket 2.3 20:36:23 10° NNW 20:42:04 73° ENE 20:45:49 22° SE
USA 306 4.1 20:43:50 10° NW 20:45:45 17° NNW 20:47:12 10° NNE
Cosmos 1602 Rocket 3.5 20:41:37 10° N 20:45:58 89° WSW 20:48:44 22° S
Cosmos 2082 Rocket 3.9 20:41:03 10° WSW 20:46:18 37° NW 20:51:34 10° NNE
NOSS 3-4 (A) 3.8 20:42:50 10° NW 20:49:34 90° WNW 20:55:06 21° SE
NOSS 3-4 (C) 3.8 20:43:28 10° NW 20:50:13 90° NE 20:55:45 22° SE
Cosmos 1707 4.3 20:52:04 12° ENE 20:52:04 12° ENE 20:52:50 10° ENE
DELTA 2 R/B (1) 4.4 20:46:42 10° WSW 20:51:35 31° S 20:53:40 24° SSE
CZ-4B R/B 2.5 20:49:58 27° S 20:51:41 74° WSW 20:55:10 10° NNW
Cosmos 2151 3.7 20:52:12 10° NNW 20:56:09 47° W 20:59:04 17° SSW
Cosmos 2098 Rocket 3.0 20:53:24 19° S 20:56:45 78° E 21:00:52 10° NNE
Cosmos 1076 Rocket 3.9 20:54:33 10° N 20:58:40 46° ENE 21:00:20 30° SE
Cosmos 44 4.3 20:54:06 10° NNW 20:59:18 44° NE 21:02:45 19° ESE
Ariane Rocket 3.0 20:59:02 23° S 21:02:12 81° WSW 21:07:19 10° NNW
Cosmos 2278 4.2 21:03:35 10° NW 21:09:10 54° WSW 21:12:37 23° S
SPOT 3 Rocket 4.1 21:09:24 19° S 21:12:54 52° W 21:17:56 10° NNW
SL-16 R/B 3.1 21:07:50 10° NW 21:13:05 40° WSW 21:16:43 18° SSW
COSMOS 2428 4.0 21:08:54 10° NNW 21:13:55 31° NE 21:17:37 16° ESE
Meteor 1-5 Rocket 4.4 21:08:12 10° NNW 21:13:58 76° W 21:17:38 24° S
Cosmos 1763 Rocket 3.5 21:10:53 23° S 21:14:08 64° ESE 21:19:21 10° NNE
USA 186 4.2 21:13:27 10° WSW 21:14:39 12° W 21:15:51 10° WNW
USA 290 2.3 21:18:06 35° SW 21:19:15 72° WNW 21:22:24 10° NNE
Cosmos 1606 Rocket 3.5 21:17:14 26° SSW 21:19:39 81° WNW 21:23:58 10° N
Cosmos 1464 Rocket 4.0 21:18:41 17° SSW 21:23:34 78° W 21:29:48 10° N
Cosmos 990 Rocket 3.9 21:18:36 10° NNW 21:23:48 83° ENE 21:26:04 35° SSE
Helios 1B rocket 3.5 21:24:22 24° E 21:24:58 25° ENE 21:27:53 10° N
CZ-4B R/B 4.1 21:23:15 23° SSW 21:25:57 46° W 21:30:38 10° NNW
ISS -3.0 21:23:28 10° WNW 21:26:45 51° NNE 21:28:15 27° ENE
Okean 1 3.1 21:25:54 40° SSW 21:27:04 75° W 21:30:40 10° N
Cosmos 1726 Rocket 3.2 21:25:49 38° S 21:27:19 89° ESE 21:31:23 10° N
BREEZE-M DEB (TANK) 2.0 21:26:18 10° W 21:28:12 44° NW 21:28:12 44° NW
Okean O Rocket 4.1 21:31:07 10° WSW 21:33:31 15° W 21:35:55 10° NW
Cosmos 1536 3.0 21:32:57 10° N 21:36:33 47° ENE 21:36:59 45° E
Cosmos-2242 2.9 21:37:47 50° SSE 21:38:39 66° E 21:42:44 10° NNE
Cosmos 1092 Rocket 3.9 21:36:19 10° N 21:42:31 77° E 21:45:21 35° SSE
Cosmos 2333 Rocket 3.7 21:38:40 10° NW 21:43:22 27° WSW 21:46:30 17° SSW
KORONAS-FOTON 4.1 21:43:53 43° ENE 21:43:53 43° ENE 21:46:51 10° NNE
Cosmos 2297 Rocket 3.8 21:46:14 18° E 21:46:23 18° E 21:50:01 10° ENE
Cosmos 841 Rocket 4.3 21:47:26 31° ESE 21:48:02 32° E 21:52:38 10° NE
Cosmos 1833 4.3 21:44:13 15° SW 21:49:00 76° WNW 21:54:40 10° NNE
CZ-2C R/B 4.2 21:52:45 18° W 21:52:49 18° W 21:54:48 10° NW
Cosmos 2360 Rocket 3.2 21:48:09 10° NW 21:53:20 37° WSW 21:55:44 26° SSW
Cosmos 1842 3.7 21:56:49 36° ENE 21:56:49 36° ENE 21:59:08 10° NNE
Cosmos 1766 2.9 21:53:40 10° NNW 21:56:45 68° WNW 21:56:45 68° WNW
Cosmos 2322 3.9 21:52:19 10° NNW 21:58:00 64° ENE 22:00:18 36° SE
Cosmos 1975 3.6 21:55:45 10° N 21:59:06 33° ENE 21:59:14 33° ENE
Meteor 2-6 Rocket 4.4 21:58:28 39° SSE 22:00:35 62° E 22:06:28 10° NNE
Cosmos 2034 Rocket 4.4 21:58:36 22° SSW 22:02:48 61° WNW 22:09:06 10° N
Cosmos 2221 3.2 22:03:18 36° E 22:03:24 36° E 22:07:14 10° NNE
Cosmos 372 Rocket 3.9 21:58:48 10° NNW 22:03:57 82° ENE 22:05:24 48° SSE
Cosmos 1271 Rocket 3.0 22:06:21 46° ENE 22:06:21 46° ENE 22:09:07 10° NNE
Cosmos 2219 Rocket 2.8 22:00:45 10° NW 22:06:09 47° WSW 22:08:05 34° SSW
SL-08 ROCKET BODY 4.4 22:05:07 10° N 22:11:20 76° E 22:13:38 41° SSE
Cosmos 540 Rocket 4.2 22:07:44 18° SW 22:11:27 50° WNW 22:16:28 10° NNE
Helios 1A 3.1 22:13:29 10° N 22:17:21 61° WNW 22:18:07 49° WSW
Cosmos 2279 Rocket 3.9 22:16:40 41° S 22:19:00 76° E 22:25:16 10° NNE
RESURS DK-1 2.1 22:16:32 10° NNW 22:20:32 81° ENE 22:20:45 76° ESE
Aureole 1 Rocket 4.2 22:16:11 10° NNW 22:22:01 60° WSW 22:24:34 37° SSW
Cosmos 1707 3.9 22:23:33 25° WNW 22:23:33 25° WNW 22:25:46 10° NNW
Cosmos 1634 Rocket 4.1 22:22:33 34° SSW 22:25:25 71° W 22:31:39 10° N
Cosmos 2322 Rocket 4.0 22:21:30 10° NW 22:25:29 20° W 22:27:37 16° SW
Meteor 1-19 Rocket 4.4 22:24:37 44° SSE 22:26:13 60° E 22:32:05 10° NNE
Cosmos 1937 Rocket 3.5 22:23:42 10° NNW 22:28:52 74° ENE 22:30:09 50° SE
TSX-5 4.3 22:27:33 10° NW 22:29:55 40° WNW 22:29:55 40° WNW
Cosmos 2058 Rocket 4.0 22:30:59 32° WSW 22:32:19 41° WNW 22:36:27 10° N
Cosmos 468 Rocket 4.4 22:30:13 29° SW 22:32:50 59° WNW 22:38:02 10° NNE
Geosat 4.4 22:28:01 10° NNE 22:32:58 61° NW 22:35:38 27° SW
SL-16 R/B 4.4 22:28:53 10° N 22:32:58 20° NE 22:37:02 10° E
CZ-2C R/B 3.5 22:29:09 10° NNE 22:33:38 79° ESE 22:34:15 65° S
GP-B 3.8 22:31:44 10° NNE 22:35:53 39° E 22:36:11 39° E
BREEZE-M DEB 4.5 22:32:47 10° WSW 22:37:37 73° S 22:52:45 10° E
Meteor 2-9 Rocket 4.1 22:34:33 10° NNW 22:39:58 81° W 22:41:24 51° S
Cosmos 44 4.1 22:35:26 10° NW 22:40:23 39° WSW 22:41:01 37° SW
CZ-2C R/B 3.7 22:39:10 25° ESE 22:41:13 34° ENE 22:45:53 10° N
Lacrosse 4 Rocket 3.1 22:42:43 21° E 22:42:43 21° E 22:44:48 10° NE
Cosmos 2237 Rocket 2.6 22:39:18 10° NNW 22:44:55 57° ENE 22:47:09 35° ESE
SeaSat 1 4.4 22:42:59 10° E 22:46:48 23° NE 22:50:38 10° N
USA 234 3.5 22:42:00 10° ENE 22:48:17 47° SE 22:49:36 42° SSE
Cosmos 2266 Rocket 3.9 22:42:28 10° N 22:48:32 77° E 22:50:26 46° SSE
Cosmos 1980 3.9 22:43:33 10° NNW 22:49:12 66° ENE 22:51:12 40° SE
Cosmos 1470 3.6 22:46:47 10° NNW 22:49:19 35° WNW 22:49:19 35° WNW
ARIANE 5 R/B 2.6 22:52:41 62° SW 22:53:06 66° WSW 22:57:33 10° NNW
Intercosmos 24 4.3 22:49:55 10° N 22:53:29 46° ENE 22:53:29 46° ENE
ALOS 2 2.5 22:54:46 70° SSW 22:55:08 76° WSW 22:59:33 10° NNW
Cosmos 2227 Rocket 3.4 22:55:49 26° ESE 22:56:21 26° ESE 23:00:59 10° NE
Helios 1B rocket 3.8 22:58:18 24° W 22:58:18 24° W 23:00:49 10° NW
COSMOS 2428 2.9 22:52:54 10° NW 22:58:27 54° WSW 22:59:34 46° SSW
Meteor 2-4 Rocket 4.2 23:00:13 40° SE 23:01:18 45° E 23:06:32 10° NNE
BlueWalker 3 4.2 23:05:22 14° ENE 23:05:22 14° ENE 23:06:01 10° ENE
ISS -1.4 23:00:19 10° WNW 23:01:11 17° WNW 23:01:11 17° WNW
Cosmos 1898 Rocket 4.0 22:58:56 10° NW 23:03:49 43° WSW 23:04:33 41° SW
Cosmos 2263 Rocket 3.8 23:03:56 19° ESE 23:04:30 19° E 23:08:22 10° NE
CZ-2C R/B 3.5 23:02:18 10° NNE 23:08:01 61° E 23:09:26 47° SSE
Meteor 1-11 Rocket 3.7 23:03:14 10° NNW 23:08:52 72° W 23:10:10 52° SSW
Cosmos 1766 Rocket 3.7 23:05:31 10° N 23:09:47 58° ENE 23:10:08 56° E
SAR-Lupe-2 4.3 23:10:57 45° NW 23:10:57 45° NW 23:13:30 10° NNW
Meteor 1-10 Rocket 4.4 23:11:29 45° SSW 23:13:21 74° WNW 23:19:20 10° N
Cosmos 1238 Rocket 3.1 23:14:04 60° E 23:14:04 60° E 23:18:19 10° NNE
PSLV R/B 3.6 23:12:28 10° N 23:16:45 68° WNW 23:17:16 61° WSW
Cosmos 1655 Rocket 4.1 23:15:48 10° N 23:22:03 70° E 23:24:15 42° SSE
Cosmos 1814 Rocket 4.4 23:21:59 44° SE 23:22:37 47° ESE 23:27:37 10° NNE
Meteor 1-27 Rocket 3.7 23:25:50 50° SSW 23:27:26 85° WNW 23:33:12 10° N
Alouette 2 Rocket 3.7 23:23:45 10° N 23:27:37 73° ENE 23:28:18 60° SE
NOSS 0 Rocket 4.4 23:23:52 10° NW 23:29:40 44° WSW 23:30:48 40° SW
Cosmos 841 Rocket 4.5 23:27:23 26° WSW 23:29:41 40° WNW 23:34:39 10° N
Cosmos 2297 Rocket 2.2 23:27:59 47° SW 23:29:42 80° WNW 23:35:23 10° NNE
Meteor 2-10 Rocket 3.9 23:24:50 10° N 23:30:21 63° ENE 23:32:13 41° SE
SL-14 R/B 4.2 23:39:49 35° E 23:39:49 35° E 23:43:11 10° NNE
Cosmos 2221 4.2 23:39:35 21° W 23:40:31 22° WNW 23:43:52 10° NNW
Cosmos 158 Rocket 4.0 23:39:40 56° S 23:40:44 75° ESE 23:46:04 10° NNE
CZ-4C R/B 4.1 23:39:06 10° NNE 23:41:47 35° ENE 23:41:47 35° ENE
MetOp-A 4.0 23:42:38 51° SW 23:43:08 53° W 23:47:44 10° NNW
ACS3 Solar Sail 2.4 23:38:29 10° NNE 23:44:11 44° E 23:46:10 33° SE
Landsat 5 3.3 23:44:24 10° NNE 23:48:27 69° ESE 23:48:27 69° ESE
